Regional Weather Roundup
Issued by NWS Charleston, SC

Home | Current Version | Previous Version | Text Only | Print | Product List | Glossary On
Versions: 1 2 3 4 5 6 7 8 9 10 11 12 13 14 15 16 17 18 19 20 21 22 23 24 25 26 27 28 29 30 31 32 33 34 35 36 37 38 39 40 41 42 43 44 45 46 47 48 49 50
000
ASUS42 KCHS 130026
RWRCHS

REGIONAL WEATHER ROUNDUP
NATIONAL WEATHER SERVICE CHARLESTON SC
700 PM EST TUE DEC 12 2017

NOTE: "FAIR" INDICATES FEW OR NO CLOUDS BELOW 12,000 FEET WITH NO
SIGNIFICANT WEATHER AND/OR OBSTRUCTIONS TO VISIBILITY.

NOT ALL STATIONS ARE QUALITY CONTROLLED. USE DATA WITH CAUTION...
ESPECIALLY DEWPOINT OBSERVATIONS.

SCZ027-030-031-034>040-042>050-130100-
...SOUTHEAST SOUTH CAROLINA...

CITY           SKY/WX    TMP DP  RH WIND       PRES   REMARKS
N CHARLESTON   CLEAR     53  32  44 W14       29.78R
6HR MIN TEMP:  53; 6HR MAX TEMP:  63;

WATERFRONT PRK   N/A     55  35  47 W7        29.63R
JOHNS ISLAND   FAIR      54  34  47 W10       29.80R
PINOPOLIS        N/A     54  39  58 W14       29.69R
MONCKS CORNER  FAIR      50  30  46 W5        29.78R
SUMMERVILLE    FAIR      52  30  43 W9G17     29.81R
BEAUFORT MCAS  CLEAR     52  33  48 W14G22    29.84R
6HR MIN TEMP:  52; 6HR MAX TEMP:  63;

BEAUFORT ARPT  FAIR      52  32  46 W15G23    29.84R
HILTON HEAD IS CLEAR     54  32  43 W9G16     29.85F
WALTERBORO     CLEAR     50  32  50 W15G23    29.83R
ALLENDALE      FAIR      48  30  49 W9G16     29.86R

...SOUTHERN MIDLANDS AND PEE DEE...

CITY           SKY/WX    TMP DP  RH WIND       PRES   REMARKS
GEORGETOWN     FAIR      46  36  66 W7        29.75S
KINGSTREE      FAIR      50  32  50 W13G18    29.76R
ORANGEBURG     CLEAR     50  28  42 W10       29.80R
6HR MIN TEMP:  50; 6HR MAX TEMP:  61;

BARNWELL         N/A     48  32  53 W13       29.86R
AIKEN          FAIR      43  30  61 W13G18    29.87R
MANNING        FAIR      50  30  46 MISG      29.78R
COLUMBIA       CLEAR     49  29  46 W16G28    29.80R
6HR MIN TEMP:  49; 6HR MAX TEMP:  61;

SUMTER         CLEAR     51  28  41 W15G23    29.74R
6HR MIN TEMP:  51; 6HR MAX TEMP:  61;

FLORENCE       PTCLDY    47  30  51 W5        29.73R
6HR MIN TEMP:  47; 6HR MAX TEMP:  60;

MYRTLE BEACH   CLEAR     51  36  56 W9        29.73R
N MYRTLE BEACH CLEAR     51  36  56 W7        29.70R
6HR MIN TEMP:  51; 6HR MAX TEMP:  63;


$$

GAZ063-065-086>088-099>101-113>116-118-119-134>141-150-130100-
...SOUTHEAST GEORGIA...

CITY           SKY/WX    TMP DP  RH WIND       PRES   REMARKS
SAVANNAH ARPT  CLEAR     52  33  48 W12       29.87R
6HR MIN TEMP:  52; 6HR MAX TEMP:  64;

HUNTER AAF     CLEAR     52  33  47 W14       29.84R
6HR MIN TEMP:  51; 6HR MAX TEMP:  64;

FORT STEWART   CLEAR     51  33  50 W7        29.87R
6HR MIN TEMP:  51; 6HR MAX TEMP:  63;

STATESBORO     CLEAR     50  29  44 NW16      29.90R
SYLVANIA       CLEAR     47  36  64 NW8       29.89R
CLAXTON        FAIR      51  34  52 W9G18     29.91R

...CSRA...CENTRAL AND FAR SOUTHEAST GEORGIA...

CITY           SKY/WX    TMP DP  RH WIND       PRES   REMARKS
THOMSON        CLEAR     44  28  54 NW7       29.95R
AUGUSTA-BUSH   CLEAR     47  29  49 W16       29.88R
6HR MIN TEMP:  47; 6HR MAX TEMP:  61;

AUGUSTA-DANIEL CLEAR     48  27  44 W9G21     29.88R
SWAINSBORO     FAIR      46  32  57 NW8       29.94R
VIDALIA        CLEAR     50  34  53 NW10      29.93R
EASTMAN        FAIR      48  23  37 NW5       29.99R
HAZLEHURST     FAIR      51  20  30 NW6       29.94R
ALMA           CLEAR     52  34  50 NW8       29.93R
6HR MIN TEMP:  52; 6HR MAX TEMP:  62;

WAYCROSS       CLEAR     52  31  44 NW7       29.94R
JESUP          FAIR      52  34  50 W7        29.92R
BAXLEY         FAIR      50  32  50 NW8       29.94R
BRUNSWICK      CLEAR     52  32  46 W6        29.91R
SAINT SIMONS   CLEAR     55  36  48 W7        29.90R
6HR MIN TEMP:  54; 6HR MAX TEMP:  68;


$$

SCZ027-028-034-036>038-045-046-048>050-GAZ119-141-130100-
...LAKE AND SUPPLEMENTAL COASTAL OBSERVATIONS...

STATION/POSITION TIME  TEMP    WIND        PRES    WAVE   SWELL
                       AIR SEA DIR/SP/G            HT/PER HT/PER/DIR
                 (UTC) (F)     (DEG/KT/KT) (MB)    (FT/S) (FT/S/D)
WINYAH BAY       2345   52     260/  4     1007.0R
LAKE MURRAY      2350   50     270/ 17/ 22 1008.5R
ACE BASIN NERRS  2345   53     260/  5     1010.0R
FORT PULASKI     0000   54 55  290/ 14/ 15 1011.1
SAPELO ISLAND    NOT AVBL

$$

ANZ835-935-AMZ111-154-330-350-352-354-370-450-454-472-130100-
...C-MAN AND BUOY OBSERVATIONS...

STATION/POSITION TIME  TEMP    WIND        PRES    WAVE   SWELL
                       AIR SEA DIR/SP/G            HT/PER HT/PER/DIR
                 (UTC) (F)     (DEG/KT/KT) (MB)    (FT/S) (FT/S/D)
BUOY 41004       0010   61 75  280/ 25/ 31 1007.4
BUOY 41008       2350   58 62  270/ 19/ 23 1011.0R   4/ 4
FOLLY BEACH CMAN 0000   52     270/ 10/ 15 1009.1R
CAPERS NEARSHORE 0008   53 58  290/ 19/ 25 1007.7R
FRIPP NEARSHORE  0008   53 57  270/ 29/ 41 1009.4R


STATION/POSITION TIME  TEMP    WIND        PRES    WAVE   SWELL
                       AIR SEA DIR/SP/G            HT/PER HT/PER/DIR
                 (UTC) (F)     (DEG/KT/KT) (MB)    (FT/S) (FT/S/D)
5E ST. MARYS GA  0000      62                N/A     2/ 3
FRYING PAN BUOY  0010   59 65  280/ 27/ 37 1004.8
BUOY 41025       0010   56 72  300/ 27/ 37 1000.8
CAPE LOOKOUT NC  0000          300/ 17/ 22 1003.0R
BUOY 41002       2350   71 75  230/ 31/ 39 1003.5F  11/ 8
BUOY 41010       NOT AVBL
ST AUGUSTINE FL  0000   60 62  310/  9/ 13 1013.2R


$$




USA.gov is the U.S. government's official web portal to all federal, state and local government web resources and services.